Weather History for Norfolk, NE

Change the Weather History Date:

Monday, January 21, 2013

  Actual Average Record
Temperature  
Mean Temperature 10 °F 23 °F  
Max Temperature 16 °F 33 °F 62 °F (1992)
Min Temperature 3 °F 12 °F -18 °F (1966)
Degree Days  
Heating Degree Days 55 42  
Month to date heating degree days 850 901  
Since 1 July heating degree days 3462 3607  
Cooling Degree Days 0 0  
Month to date cooling degree days 0 0  
Year to date cooling degree days 0 0  
Moisture  
Dew Point -4 °F    
Average Humidity 57    
Maximum Humidity 73    
Minimum Humidity 40    
Precipitation  
Precipitation T in 0.02 in 0.50 in (1917)
Month to date precipitation 0.12 0.39  
Year to date precipitation 0.12 0.39  
Snow  
Snow T in 0.20 in - ()
Month to date snowfall T 4.1  
Since 1 July snowfall 7.5 15.0  
Snow Depth 0.00 in    
Sea Level Pressure  
Sea Level Pressure 30.45 in    
Wind  
Wind Speed 10 mph (NNW)    
Max Wind Speed 23 mph    
Max Gust Speed 29 mph    
Visibility 10 miles    
Events      
T = Trace of Precipitation, MM = Missing Value Source: NWS Daily Summary

Daily Weather History Graph

Daily Weather History Graph

Search for Another Location

Airport:

Trip Planner

Search our weather history database for the weather conditions in past years. The results will help you decide how hot, cold, wet, or windy it might be!

Date:

Astronomy

Jan. 21, 2013 Rise Set
Actual Time 7:51 AM CST 5:31 PM CST
Civil Twilight 7:21 AM CST 6:01 PM CST
Nautical Twilight 6:47 AM CST 6:35 PM CST
Astronomical Twilight 6:14 AM CST 7:08 PM CST
Moon 1:11 PM CST (1/21) 3:21 AM CST (1/21)
Length of Visible Light 10h 40m
Length of Day
9h 39m
Waxing Gibbous, 75% of the Moon is Illuminated
Jan 21
Waxing Gibbous
Jan 26
Full
Feb 3
Last Quarter
Feb 10
New
Feb 17
First Quarter

Hourly Weather History & Observations

Time (CST) Temp. Windchill Dew Point Humidity Pressure Visibility Wind Dir Wind Speed Gust Speed Precip Events Conditions
12:06 AM 12.2 °F -2.5 °F 6.8 °F 79% 30.38 in 10.0 mi North 12.7 mph - N/A   Overcast
12:56 AM 10.9 °F -5.4 °F 3.0 °F 70% 30.48 in 10.0 mi North 15.0 mph - 0.00 in   Overcast
1:51 AM 8.6 °F -8.9 °F -0.4 °F 67% 30.38 in 10.0 mi NNW 16.1 mph 20.7 mph N/A   Overcast
1:56 AM 9.0 °F -8.5 °F -0.9 °F 64% 30.48 in 10.0 mi NNW 16.1 mph - N/A   Overcast
2:56 AM 8.1 °F -11.7 °F -5.1 °F 55% 30.48 in 10.0 mi NW 20.7 mph 24.2 mph N/A   Overcast
3:56 AM 7.0 °F -11.6 °F -7.1 °F 53% 30.48 in 10.0 mi NW 17.3 mph - N/A   Overcast
4:56 AM 6.1 °F -10.9 °F -9.0 °F 50% 30.47 in 10.0 mi NNW 13.8 mph - N/A   Overcast
5:56 AM 3.9 °F -13.7 °F -9.9 °F 53% 30.47 in 10.0 mi NNW 13.8 mph - N/A   Scattered Clouds
6:56 AM 3.9 °F -13.0 °F -9.0 °F 55% 30.50 in 10.0 mi NNW 12.7 mph - N/A   Clear
7:56 AM 3.0 °F -10.5 °F -9.0 °F 57% 30.49 in 10.0 mi North 8.1 mph - N/A   Scattered Clouds
8:56 AM 3.0 °F -9.3 °F -9.0 °F 57% 30.49 in 10.0 mi NNW 6.9 mph - N/A   Overcast
9:56 AM 3.9 °F -8.2 °F -8.0 °F 58% 30.50 in 10.0 mi NNW 6.9 mph - N/A   Overcast
10:56 AM 7.0 °F -5.7 °F -8.0 °F 51% 30.51 in 10.0 mi NNW 8.1 mph - N/A   Overcast
11:56 AM 9.0 °F -5.1 °F -8.0 °F 46% 30.49 in 10.0 mi NW 10.4 mph - N/A   Clear
12:56 PM 10.0 °F -2.9 °F -8.0 °F 44% 30.45 in 10.0 mi WNW 9.2 mph - N/A   Mostly Cloudy
1:56 PM 12.9 °F -0.9 °F -6.0 °F 43% 30.43 in 10.0 mi NNW 11.5 mph - N/A   Clear
2:56 PM 15.1 °F 0.5 °F -6.0 °F 39% 30.42 in 10.0 mi NW 13.8 mph 19.6 mph N/A   Clear
3:56 PM 14.0 °F 2.9 °F -5.1 °F 43% 30.41 in 10.0 mi NNW 8.1 mph - N/A   Scattered Clouds
4:56 PM 12.9 °F 1.6 °F -4.0 °F 47% 30.41 in 10.0 mi North 8.1 mph - N/A   Mostly Cloudy
5:56 PM 10.9 °F 2.9 °F -2.0 °F 56% 30.41 in 10.0 mi North 4.6 mph - N/A   Clear
6:56 PM 12.0 °F 2.7 °F -0.9 °F 56% 30.42 in 10.0 mi North 5.8 mph - N/A   Mostly Cloudy
7:56 PM 10.0 °F 0.4 °F -0.0 °F 64% 30.42 in 10.0 mi North 5.8 mph - N/A   Overcast
8:56 PM 9.0 °F 2.4 °F -0.0 °F 67% 30.42 in 10.0 mi North 3.5 mph - N/A   Clear
9:56 PM 9.0 °F 0.6 °F 1.0 °F 70% 30.42 in 10.0 mi NE 4.6 mph - N/A   Scattered Clouds
10:56 PM 9.0 °F -0.9 °F 1.9 °F 73% 30.41 in 10.0 mi SE 5.8 mph - N/A   Overcast
11:56 PM 9.0 °F - 1.9 °F 73% 30.41 in 10.0 mi Calm Calm - N/A   Overcast